Terug naar catalogus

STARLINK-31454

ActiefCommunicatieVLEO
NORAD 59014·PAYLOAD·🇺🇸 United States

Gelanceerd Feb 23, 2024 vanaf Vandenberg Space Force Base

Loading…

Volgende Passages (komende 24 uur)

TLE

VersSource: CelesTrak SupGP

Epoch: Sep 14, 2026, 22:40 UTC

1 59014C 24036S   26257.94493056  .00054914  00000+0  17663-2 0  2570
2 59014  53.1562 278.7734 0001102  91.9690 246.3081 15.31666824    16

Volg STARLINK-31454 in realtime met AllMySat

Download on the App Store